When you browse on this site, cookies collect data to enhance your experience and personalize the content and advertising you see.
Visit our Privacy Policy to learn more. By continuing to use the site, you agree to this use of cookies and data.
  • In Schweiz
  • Länderverzeichnis
  • Für 7 Tage
  • Wassertemperatur
  • Satellitenkarten
  • Wetterkarte
  • Widgets
  • user-avatar
    Anmelden

    Stündliche Wetter Plastunivka

    Heute, 19 Februar, Dienstag

    Zeit Temperatur Niederschläge Wind Luftdruck Luftfeuchtigkeit
    00:00 -5°C° 0 mm 2 m/S 751 mmHg 85%
    01:00 -6°C° 0 mm 2 m/S 752 mmHg 86%
    02:00 -7°C° 0 mm 1 m/S 751 mmHg 90%
    03:00 -8°C° 0 mm 1 m/S 752 mmHg 90%
    04:00 -8°C° 0 mm 1 m/S 752 mmHg 90%
    05:00 -9°C° 0 mm 1 m/S 752 mmHg 90%
    06:00 -8°C° 0 mm 1 m/S 752 mmHg 90%
    07:00 -8°C° 0 mm 0 m/S 753 mmHg 89%
    08:00 -7°C° 0 mm 0 m/S 753 mmHg 90%
    09:00 -6°C° 0 mm 1 m/S 753 mmHg 88%
    10:00 -3°C° 0 mm 1 m/S 753 mmHg 87%
    11:00 -2°C° 0 mm 1 m/S 753 mmHg 85%
    12:00 -3°C° 0 mm 2 m/S 753 mmHg 86%
    13:00 -3°C° 0 mm 2 m/S 753 mmHg 87%
    14:00 -2°C° 0 mm 2 m/S 752 mmHg 88%
    15:00 -3°C° 0 mm 2 m/S 752 mmHg 88%
    16:00 -4°C° 0 mm 2 m/S 752 mmHg 88%
    17:00 -5°C° 0 mm 2 m/S 751 mmHg 88%
    18:00 -6°C° 0 mm 2 m/S 751 mmHg 86%
    19:00 -7°C° 0 mm 3 m/S 751 mmHg 85%
    20:00 -7°C° 0 mm 3 m/S 750 mmHg 83%
    21:00 -7°C° 0 mm 3 m/S 750 mmHg 82%
    22:00 -7°C° 0 mm 3 m/S 750 mmHg 81%
    23:00 -8°C° 0 mm 4 m/S 749 mmHg 80%

    Morgen, 20 Februar, Mittwoch

    Zeit Temperatur Niederschläge Wind Luftdruck Luftfeuchtigkeit
    00:00 -8°C° 0 mm 4 m/S 749 mmHg 80%
    01:00 -8°C° 0 mm 4 m/S 749 mmHg 80%
    02:00 -8°C° 0 mm 4 m/S 748 mmHg 80%
    03:00 -8°C° 0 mm 5 m/S 748 mmHg 81%
    04:00 -8°C° 0 mm 5 m/S 747 mmHg 81%
    05:00 -8°C° 0 mm 5 m/S 746 mmHg 82%
    06:00 -7°C° 0 mm 5 m/S 746 mmHg 82%
    07:00 -8°C° 0 mm 6 m/S 746 mmHg 82%
    08:00 -6°C° 0 mm 6 m/S 745 mmHg 81%
    09:00 -5°C° 0 mm 6 m/S 745 mmHg 84%
    10:00 -4°C° 0 mm 6 m/S 745 mmHg 86%
    11:00 -3°C° 0 mm 6 m/S 744 mmHg 89%
    12:00 -3°C° 0 mm 6 m/S 744 mmHg 92%
    13:00 -2°C° 0 mm 6 m/S 744 mmHg 95%
    14:00 -1°C° 0 mm 5 m/S 743 mmHg 98%
    15:00 -1°C° 0 mm 5 m/S 743 mmHg 98%
    16:00 -1°C° 0 mm 5 m/S 743 mmHg 98%
    17:00 -1°C° 0 mm 4 m/S 742 mmHg 98%
    18:00 -1°C° 0.2 mm 4 m/S 742 mmHg 98%
    19:00 -1°C° 0.2 mm 4 m/S 742 mmHg 98%
    20:00 -1°C° 0.2 mm 4 m/S 743 mmHg 98%
    21:00 -1°C° 0.1 mm 4 m/S 742 mmHg 97%
    22:00 -1°C° 0.1 mm 3 m/S 742 mmHg 97%
    23:00 -1°C° 0.1 mm 3 m/S 742 mmHg 97%

    übermorgen, 21 Februar, Donnerstag

    Zeit Temperatur Niederschläge Wind Luftdruck Luftfeuchtigkeit
    00:00 -1°C° 0 mm 3 m/S 742 mmHg 97%
    01:00 -2°C° 0 mm 4 m/S 742 mmHg 97%
    02:00 -2°C° 0 mm 4 m/S 741 mmHg 97%
    03:00 -2°C° 0 mm 5 m/S 741 mmHg 96%
    04:00 -2°C° 0 mm 5 m/S 741 mmHg 95%
    05:00 -4°C° 0 mm 5 m/S 740 mmHg 93%
    06:00 -2°C° 0.1 mm 5 m/S 740 mmHg 93%
    07:00 -3°C° 0.1 mm 6 m/S 740 mmHg 93%
    08:00 -2°C° 0.1 mm 7 m/S 740 mmHg 93%
    09:00 -3°C° 0.1 mm 7 m/S 740 mmHg 87%
    10:00 -3°C° 0.1 mm 7 m/S 740 mmHg 82%
    11:00 -4°C° 0.1 mm 7 m/S 740 mmHg 76%
    12:00 -4°C° 0.1 mm 7 m/S 740 mmHg 76%
    13:00 -4°C° 0.1 mm 7 m/S 741 mmHg 76%
    14:00 -6°C° 0.1 mm 7 m/S 741 mmHg 77%
    15:00 -6°C° 0.1 mm 7 m/S 741 mmHg 78%
    16:00 -6°C° 0.1 mm 6 m/S 741 mmHg 80%
    17:00 -6°C° 0.1 mm 6 m/S 742 mmHg 82%
    18:00 -8°C° 0 mm 6 m/S 742 mmHg 83%
    19:00 -8°C° 0 mm 5 m/S 742 mmHg 84%
    20:00 -10°C° 0 mm 5 m/S 742 mmHg 86%
    21:00 -10°C° 0 mm 5 m/S 743 mmHg 86%
    22:00 -11°C° 0 mm 5 m/S 743 mmHg 86%
    23:00 -11°C° 0 mm 5 m/S 743 mmHg 87%

    22 Februar, Freitag

    Zeit Temperatur Niederschläge Wind Luftdruck Luftfeuchtigkeit
    00:00 -11°C° 0 mm 5 m/S 743 mmHg 88%
    01:00 -12°C° 0 mm 5 m/S 743 mmHg 89%
    02:00 -12°C° 0 mm 5 m/S 743 mmHg 90%
    03:00 -11°C° 0 mm 4 m/S 743 mmHg 91%
    04:00 -12°C° 0 mm 4 m/S 743 mmHg 92%
    05:00 -12°C° 0 mm 4 m/S 743 mmHg 93%
    06:00 -11°C° 0 mm 4 m/S 744 mmHg 92%
    07:00 -12°C° 0 mm 5 m/S 744 mmHg 92%
    08:00 -12°C° 0 mm 5 m/S 744 mmHg 92%
    09:00 -11°C° 0.1 mm 5 m/S 745 mmHg 89%
    10:00 -10°C° 0.1 mm 5 m/S 745 mmHg 85%
    11:00 -10°C° 0.1 mm 5 m/S 745 mmHg 82%
    12:00 -10°C° 0.1 mm 6 m/S 746 mmHg 80%
    13:00 -11°C° 0.1 mm 6 m/S 746 mmHg 78%
    14:00 -11°C° 0.1 mm 6 m/S 746 mmHg 76%
    15:00 -12°C° 0 mm 6 m/S 747 mmHg 77%
    16:00 -13°C° 0 mm 5 m/S 747 mmHg 78%
    17:00 -14°C° 0 mm 4 m/S 748 mmHg 80%
    18:00 -14°C° 0 mm 4 m/S 748 mmHg 81%
    19:00 -15°C° 0 mm 4 m/S 749 mmHg 83%
    20:00 -16°C° 0 mm 4 m/S 749 mmHg 84%
    21:00 -15°C° 0 mm 3 m/S 749 mmHg 85%
    22:00 -16°C° 0 mm 3 m/S 749 mmHg 86%
    23:00 -16°C° 0 mm 3 m/S 749 mmHg 86%

    23 Februar, Samstag

    Zeit Temperatur Niederschläge Wind Luftdruck Luftfeuchtigkeit
    00:00 -16°C° 0 mm 3 m/S 750 mmHg 87%
    01:00 -17°C° 0 mm 3 m/S 750 mmHg 88%
    02:00 -17°C° 0 mm 3 m/S 750 mmHg 89%
    03:00 -17°C° 0 mm 3 m/S 750 mmHg 89%
    04:00 -17°C° 0 mm 3 m/S 750 mmHg 90%
    05:00 -17°C° 0 mm 3 m/S 750 mmHg 90%
    06:00 -17°C° 0 mm 3 m/S 751 mmHg 90%
    07:00 -17°C° 0 mm 3 m/S 751 mmHg 90%
    08:00 -17°C° 0 mm 4 m/S 752 mmHg 91%
    09:00 -16°C° 0 mm 4 m/S 752 mmHg 88%
    10:00 -15°C° 0 mm 4 m/S 752 mmHg 86%
    11:00 -14°C° 0 mm 4 m/S 752 mmHg 83%
    12:00 -14°C° 0 mm 4 m/S 752 mmHg 82%
    13:00 -12°C° 0 mm 4 m/S 752 mmHg 81%
    14:00 -12°C° 0 mm 4 m/S 752 mmHg 79%
    15:00 -12°C° 0.1 mm 4 m/S 752 mmHg 81%
    16:00 -12°C° 0.1 mm 4 m/S 753 mmHg 84%
    17:00 -13°C° 0.1 mm 3 m/S 753 mmHg 86%
    18:00 -13°C° 0 mm 3 m/S 753 mmHg 87%
    19:00 -14°C° 0 mm 3 m/S 753 mmHg 88%
    20:00 -15°C° 0 mm 3 m/S 754 mmHg 89%
    21:00 -15°C° 0 mm 3 m/S 754 mmHg 90%
    22:00 -16°C° 0 mm 3 m/S 754 mmHg 90%
    23:00 -16°C° 0 mm 3 m/S 754 mmHg 91%

    24 Februar, Sonntag

    Zeit Temperatur Niederschläge Wind Luftdruck Luftfeuchtigkeit
    00:00 -17°C° 0 mm 3 m/S 754 mmHg 91%
    01:00 -17°C° 0 mm 3 m/S 754 mmHg 92%
    02:00 -18°C° 0 mm 3 m/S 754 mmHg 93%
    03:00 -18°C° 0 mm 3 m/S 754 mmHg 93%
    04:00 -18°C° 0 mm 3 m/S 754 mmHg 93%
    05:00 -18°C° 0 mm 3 m/S 755 mmHg 94%
    06:00 -18°C° 0 mm 3 m/S 755 mmHg 93%
    07:00 -18°C° 0 mm 3 m/S 755 mmHg 93%
    08:00 -17°C° 0 mm 3 m/S 755 mmHg 92%
    09:00 -16°C° 0 mm 3 m/S 756 mmHg 91%
    10:00 -15°C° 0 mm 3 m/S 756 mmHg 89%
    11:00 -14°C° 0 mm 3 m/S 756 mmHg 88%
    12:00 -13°C° 0 mm 3 m/S 756 mmHg 87%
    13:00 -12°C° 0 mm 4 m/S 756 mmHg 86%
    14:00 -12°C° 0 mm 4 m/S 756 mmHg 85%
    15:00 -12°C° 0 mm 4 m/S 756 mmHg 86%
    16:00 -12°C° 0 mm 4 m/S 756 mmHg 86%
    17:00 -12°C° 0 mm 4 m/S 756 mmHg 87%
    18:00 -12°C° 0 mm 3 m/S 756 mmHg 87%
    19:00 -13°C° 0 mm 3 m/S 757 mmHg 88%
    20:00 -13°C° 0 mm 3 m/S 757 mmHg 89%
    21:00 -14°C° 0 mm 3 m/S 757 mmHg 90%
    22:00 -14°C° 0 mm 3 m/S 757 mmHg 91%
    23:00 -15°C° 0 mm 3 m/S 757 mmHg 92%
    Mehr zeigen